Regional Weather Roundup
Issued by NWS Cleveland, OH

Home | Current Version | Previous Version | Graphics & Text | Print | Product List | Glossary On
Versions: 1 2 3 4 5 6 7 8 9 10 11 12 13 14 15 16 17 18 19 20 21 22 23 24 25 26 27 28 29 30 31 32 33 34 35 36 37 38 39 40 41 42 43 44 45 46 47 48 49 50
000
ASUS41 KCLE 290800
RWRCLE
OHIO REGIONAL WEATHER ROUNDUP
NATIONAL WEATHER SERVICE WILMINGTON, OH
400 AM EDT FRI AUG 29 2014

NOTE: "FAIR" INDICATES FEW OR NO CLOUDS BELOW 12,000 FEET WITH NO
SIGNIFICANT WEATHER AND/OR OBSTRUCTIONS TO VISIBILITY.

OHZ001>008-015>018-024>027-034-035-043-044-290900-
   NORTHWEST OHIO

CITY           SKY/WX    TMP DP  RH WIND       PRES   REMARKS
DEFIANCE       CLEAR     60  54  80 E5        30.09F
FINDLAY        CLEAR     58  52  80 E6        30.09F
TOLEDO EXPRESS PTCLDY    58  51  78 E5        30.10F
TOLEDO METCALF PTCLDY    57  50  77 E5        30.12F
LIMA           CLEAR     61  55  81 SE8       30.10S
$$

OHZ009>014-019>023-028>033-038-089-290900-
   NORTHEAST OHIO

CITY           SKY/WX    TMP DP  RH WIND       PRES   REMARKS
CLE-HOPKINS    CLEAR     53  49  86 SE3       30.15F
CLE-LAKEFRONT  CLEAR     58  51  78 SE6       30.13S
CUY CO. ARPT   NOT AVBL
LORAIN-ELYRIA  CLEAR     54  49  83 S5        30.14F
ASHTABULA      PTCLDY    49  47  93 CALM      30.16F
AKRON-CANTON   CLEAR     54  49  83 E5        30.15S
WOOSTER        NOT AVBL
MANSFIELD      CLEAR     55  51  86 SE6       30.13F
YOUNGSTOWN     PTCLDY    50  48  93 E5        30.15F
$$

OHZ042-051>053-060>062-070>072-077>081-290900-
  SOUTHWEST OHIO

CITY           SKY/WX    TMP DP  RH WIND       PRES   REMARKS
CINC-COVINGTON MOCLDY    69  61  75 E6        30.07S
CINC-LUNKEN    PTCLDY    65  62  90 N3        30.07F
HAMILTON       PTCLDY    66  61  84 E3        30.08S
DAYTON         NOT AVBL
WRIGHT-PAT AFB CLEAR     64  59  83 E5        30.10R
DAYTON GENERAL CLEAR     65  59  81 E6        30.07F
WILMINGTON     CLEAR     62  58  86 E5        30.09S
$$

OHZ036-037-039>041-045>050-054>059-063>069-073>076-082>088-290900-
  CENTRAL AND SOUTHEAST OHIO

CITY           SKY/WX    TMP DP  RH WIND       PRES   REMARKS
COLUMBUS       CLEAR     63  51  65 E8        30.10F
OSU AIRPORT    CLEAR     60  53  77 E3        30.11S
BOLTON FIELD   NOT AVBL
RICKENBACK AFB NOT AVBL
NEWARK         CLEAR     54  52  93 CALM      30.12F
MARION         CLEAR     56  51  84 SE3       30.12S
LANCASTER      CLEAR     59  54  83 E3        30.11F
ZANESVILLE     CLEAR     56  51  84 CALM      30.12F
NEW PHILLY     CLEAR     52  50  93 CALM      30.14F FOG
$$


USA.gov is the U.S. government's official web portal to all federal, state and local government web resources and services.